Vertical_Velocity
12 2 1 -1 -1 -0 -2 -2 -2 -1 2 -1 -2 1 -0 -1 0 -2 -1 0 2 1 -0 -1 1 2 1 2 1 0 0 -1 -0 0 1 -0 1 -1 -0 -1 -1 -1 -2
7 -0 -0 -1 -2 -2 1 -2 -0 -3 2 -1 5 -2 -2 -3 -3 -0 -0 -0 1 2 1 -1 2 2 2 1 -1 1 0 -1 -0 -1 -1 1 -1 -0 1 -3 3 -1 -2
2 3 -2 -2 -1 -3 -1 -0 -1 -0 -4 -2 -5 -6 -1 0 -2 3 -1 -0 0 2 2 4 1 2 -1 1 -0 0 1 -0 -1 0 -0 -2 3 -1 -0 3 -4 -1 -1
-1 3 0 -0 -0 -1 -4 -4 -1 -1 -3 -4 -4 0 -6 -0 2 0 -1 0 2 1 1 -1 1 0 0 0 1 1 2 -0 -4 3 -1 -0 -6 2 1 -1 -3 -0 -3
3 4 -1 -0 -1 -1 -3 -6 -1 3 1 -8 -1 -4 1 7 1 2 -0 -1 2 3 0 2 3 -2 2 -2 1 3 0 -7 -3 -3 -1 -0 -1 -0 -0 -4 -3 0 -3
1 -10 -1 0 -2 -0 -2 -5 -2 5 -4 21 -9 -9 3 -0 -2 0 -1 3 3 3 1 -3 -3 -3 1 -1 0 -2 -5 -1 1 1 -2 1 1 -1 -3 1 -0 2 -2
7 1 -4 -0 -1 -3 1 -2 -5 -6 2 -11 63 8 -11 13 -1 16 3 -0 3 1 3 -2 2 -0 -4 -2 -1 2 -8 1 3 2 1 2 0 -1 -2 2 -1 -4 -1
-0 1 -1 -3 -4 2 -1 3 0 -9 3 7 -6 26 -6 2 2 17 6 1 -1 0 7 1 1 4 -3 2 -4 5 9 -4 -2 1 0 1 -1 1 -3 -1 -3 1 -0
-2 2 2 -4 0 -2 -2 1 5 -2 7 -6 1 10 2 -3 6 -1 11 -0 -0 6 2 3 3 4 -5 6 2 7 1 2 -2 -2 -4 3 2 -3 -3 -5 1 -2 -2
1 2 1 -5 4 -0 1 -5 -2 1 2 -3 -2 -1 -5 -4 -6 16 -0 1 -4 4 3 0 -2 -4 -3 -1 -5 7 3 -2 -5 0 4 -2 -3 -0 -2 2 0 -0 1
1 -1 -3 -3 -0 2 -2 7 6 -1 3 11 11 -1 82 3 -2 5 -4 -3 -2 1 4 11 7 -3 -8 -2 -1 1 3 -2 1 1 -2 0 -0 1 0 -1 -2 -0 -1
2 6 1 2 -3 -3 -2 -0 0 4 0 -0 7 27 23 -5 -8 32 -3 -4 0 2 11 -0 -5 -2 3 3 1 5 -0 -1 1 1 -0 0 1 -1 0 1 2 -1 -3
7 4 2 -1 5 3 -0 4 3 2 -2 1 -0 -8 33 -4 -4 6 -3 2 3 4 3 -8 2 -1 -2 3 -4 11 -2 -4 -0 -2 -3 -1 1 1 -0 -0 -1 4 -0
-0 3 -1 -1 -6 2 1 0 -2 1 -1 3 3 -6 2 11 4 2 3 1 -2 0 -1 -1 -2 2 3 -2 2 -1 -5 2 5 2 2 0 -1 -1 2 2 -0 0 0
2 -0 2 -1 -4 -1 -1 2 -1 -5 -2 -4 11 -3 2 2 3 5 -1 -1 1 0 1 -0 -3 0 2 1 -2 1 -2 -3 -3 -0 5 0 -1 -1 -4 -2 1 1 0
-6 0 -3 -4 -1 1 -0 -0 -1 8 5 19 1 -4 -5 16 1 -2 -3 -0 1 -1 0 -0 -2 -1 1 -1 -0 -0 -0 -3 -0 1 1 -2 -0 0 -2 -3 -1 -1 1
-3 -3 5 -1 -6 1 2 1 -8 6 19 3 29 -16 26 2 -4 4 1 -2 -3 -0 0 -0 2 1 1 1 -0 -1 2 1 -3 -0 -1 -2 0 -2 -2 -1 -1 -0 0
2 1 1 -3 -4 1 -0 0 2 -3 1 19 3 12 8 -3 3 3 -2 -1 3 -1 1 4 -0 2 1 2 -1 0 4 1 -4 -4 -2 1 -5 2 -2 -1 2 0 1
1 -1 0 -1 -5 -1 0 -1 3 -1 -5 -4 -0 4 12 -0 5 1 -4 -5 1 -1 2 5 1 2 2 3 1 0 -2 -1 0 -0 -2 0 1 -1 -1 1 1 -0 2
-2 -0 -1 2 -4 -3 0 -0 -2 0 -3 -5 -7 4 13 5 4 -1 -4 -0 -1 -0 -2 1 2 1 1 2 1 -1 -2 1 2 2 1 -1 -4 2 2 0 -1 1 0
-1 -0 -1 2 -1 -2 -1 -3 -3 -1 -0 2 3 -2 -6 -0 1 5 -1 3 -2 3 1 3 -0 0 2 -0 1 2 -2 1 -1 -2 3 2 -0 -4 -1 -2 0 -1 -1
-1 1 1 -1 2 -1 1 -1 4 0 -3 -1 1 4 0 -3 -3 -3 -0 4 2 2 -3 2 4 -1 -1 1 2 -4 -0 0 -2 1 2 6 2 0 -1 0 2 3 3
2 -1 0 1 -4 1 -1 -1 -1 -1 -0 1 -4 -4 4 1 1 -1 0 2 -2 -4 1 2 0 0 -3 -0 2 4 -0 4 1 -1 -0 -2 2 0 1 4 1 0 0
3 1 -2 -0 -1 0 -1 -2 -6 -1 1 -0 -1 -2 4 2 0 1 0 2 2 2 1 3 2 -1 -3 -4 3 4 13 1 -1 -1 -1 -1 -1 -2 -0 1 3 4 1
2 3 -1 -2 -5 2 1 2 -4 1 -4 3 -1 1 9 6 6 5 2 4 6 7 8 7 -1 -4 1 2 9 -3 1 1 1 -1 -2 -1 3 -5 0 1 0 1 2
1 4 2 1 -2 -2 -1 -1 0 -1 2 3 -5 2 4 3 1 0 -3 2 3 2 5 6 4 1 -0 4 3 2 0 1 0 1 2 -1 0 -1 -2 -2 -3 -1 -2
Height
5815 5815 5812 5809 5807 5806 5805 5804 5805 5805 5804 5804 5806 5809 5811 5814 5817 5820 5822 5826 5829 5832 5833 5834 5836 5838 5839 5842 5843 5844 5846 5846 5847 5848 5849 5850 5851 5852 5853 5853 5854 5854 5854
5810 5809 5808 5807 5804 5803 5803 5801 5800 5799 5801 5802 5802 5802 5805 5809 5811 5814 5817 5820 5824 5827 5829 5831 5833 5835 5837 5838 5840 5841 5843 5843 5845 5847 5848 5849 5850 5849 5851 5852 5851 5852 5852
5806 5806 5805 5803 5801 5800 5799 5798 5798 5796 5795 5796 5798 5800 5800 5802 5805 5807 5811 5815 5819 5823 5826 5828 5830 5831 5833 5835 5836 5838 5840 5842 5844 5844 5846 5846 5848 5846 5849 5847 5849 5851 5850
5801 5801 5799 5798 5797 5796 5795 5793 5794 5792 5792 5793 5793 5793 5795 5797 5799 5802 5806 5809 5814 5818 5821 5824 5827 5829 5831 5833 5834 5836 5839 5839 5841 5842 5843 5843 5846 5846 5845 5846 5847 5848 5846
5797 5796 5793 5792 5791 5790 5789 5788 5788 5786 5788 5784 5788 5787 5789 5790 5794 5798 5802 5806 5810 5813 5817 5820 5823 5826 5827 5830 5832 5834 5835 5835 5837 5837 5840 5843 5843 5845 5843 5844 5846 5845 5844
5789 5789 5786 5786 5785 5784 5783 5783 5782 5784 5781 5780 5782 5782 5782 5783 5789 5793 5797 5801 5806 5809 5813 5817 5821 5824 5823 5825 5828 5831 5832 5833 5833 5836 5838 5841 5840 5840 5842 5842 5842 5842 5841
5784 5783 5780 5779 5779 5777 5777 5776 5777 5776 5775 5777 5772 5775 5778 5783 5783 5783 5790 5797 5802 5806 5810 5812 5815 5818 5819 5823 5827 5829 5831 5831 5832 5833 5835 5836 5837 5839 5841 5839 5838 5838 5838
5778 5777 5776 5773 5772 5772 5771 5770 5769 5771 5769 5766 5763 5773 5778 5778 5781 5781 5787 5793 5798 5802 5805 5807 5811 5814 5816 5821 5823 5826 5828 5830 5832 5832 5833 5835 5836 5837 5837 5836 5836 5835 5835
5772 5771 5770 5767 5767 5767 5765 5763 5761 5760 5761 5759 5759 5770 5772 5775 5777 5781 5784 5790 5794 5798 5799 5802 5808 5810 5815 5819 5823 5825 5826 5829 5829 5830 5832 5834 5835 5836 5836 5835 5832 5832 5832
5768 5766 5765 5763 5760 5759 5756 5753 5753 5752 5752 5751 5754 5759 5767 5772 5776 5777 5780 5785 5789 5793 5794 5797 5802 5808 5814 5817 5821 5822 5825 5825 5826 5829 5831 5831 5831 5832 5831 5831 5830 5830 5831
5764 5760 5758 5757 5754 5749 5747 5742 5739 5741 5740 5739 5744 5750 5745 5764 5769 5775 5778 5781 5787 5790 5791 5796 5801 5806 5809 5812 5816 5820 5824 5822 5825 5826 5827 5828 5828 5828 5828 5827 5828 5828 5829
5763 5759 5756 5751 5751 5745 5740 5737 5730 5723 5721 5725 5736 5741 5749 5761 5767 5771 5775 5777 5784 5788 5792 5795 5799 5804 5808 5810 5814 5820 5819 5820 5822 5824 5825 5825 5825 5825 5825 5825 5825 5825 5827
5759 5755 5750 5748 5744 5738 5732 5727 5719 5710 5707 5707 5720 5729 5743 5754 5761 5771 5774 5777 5782 5788 5792 5795 5800 5805 5808 5811 5813 5818 5816 5818 5820 5821 5822 5821 5822 5821 5822 5822 5822 5823 5821
5749 5748 5745 5742 5738 5732 5726 5723 5713 5708 5699 5695 5714 5728 5740 5748 5756 5766 5774 5776 5780 5787 5789 5792 5797 5802 5805 5807 5811 5816 5813 5816 5817 5818 5817 5818 5818 5818 5817 5817 5818 5817 5817
5745 5743 5738 5736 5732 5727 5724 5720 5713 5707 5704 5702 5709 5726 5736 5746 5755 5762 5767 5772 5776 5783 5787 5790 5794 5798 5802 5804 5808 5812 5809 5811 5812 5813 5814 5813 5813 5813 5814 5813 5812 5812 5812
5738 5737 5732 5729 5726 5722 5718 5716 5713 5709 5708 5709 5713 5725 5735 5745 5752 5758 5763 5767 5772 5778 5783 5786 5789 5793 5797 5801 5804 5808 5804 5807 5808 5809 5809 5809 5810 5808 5808 5808 5807 5807 5807
5735 5733 5730 5725 5721 5717 5716 5715 5712 5711 5710 5712 5715 5727 5732 5742 5748 5755 5758 5763 5769 5773 5779 5782 5785 5789 5793 5795 5798 5802 5801 5803 5803 5805 5805 5805 5805 5804 5802 5802 5802 5803 5802
5734 5731 5726 5720 5717 5713 5711 5713 5713 5712 5712 5716 5721 5726 5733 5737 5746 5749 5754 5759 5764 5768 5774 5777 5781 5785 5787 5789 5792 5794 5800 5798 5797 5800 5800 5800 5800 5798 5798 5797 5797 5798 5797
5729 5726 5722 5717 5713 5711 5710 5711 5713 5714 5714 5716 5720 5725 5732 5736 5739 5746 5752 5755 5760 5765 5770 5774 5776 5780 5781 5784 5786 5788 5791 5798 5796 5794 5794 5794 5793 5793 5792 5791 5791 5792 5793
5725 5722 5720 5714 5711 5710 5709 5710 5712 5714 5716 5719 5722 5725 5730 5733 5739 5744 5748 5752 5756 5760 5763 5769 5771 5774 5777 5779 5782 5784 5785 5787 5793 5793 5791 5788 5788 5787 5786 5784 5786 5788 5788
5721 5720 5717 5713 5709 5708 5708 5709 5710 5711 5713 5714 5717 5721 5725 5730 5736 5739 5743 5748 5750 5754 5758 5763 5767 5770 5772 5774 5777 5779 5779 5781 5781 5784 5789 5786 5781 5778 5777 5779 5781 5782 5783
5719 5717 5714 5711 5707 5706 5705 5706 5706 5707 5709 5711 5712 5715 5719 5723 5730 5735 5739 5744 5745 5749 5754 5759 5762 5764 5766 5769 5772 5772 5773 5776 5774 5776 5776 5780 5778 5775 5773 5774 5777 5778 5779
5715 5713 5711 5709 5705 5703 5702 5703 5703 5705 5705 5704 5704 5704 5707 5714 5721 5726 5733 5738 5742 5745 5748 5752 5755 5758 5760 5762 5766 5766 5765 5768 5768 5770 5770 5769 5770 5770 5771 5772 5773 5773 5774
5711 5710 5708 5707 5704 5702 5699 5697 5697 5699 5700 5698 5694 5694 5699 5706 5714 5719 5727 5734 5738 5740 5742 5747 5749 5752 5754 5755 5759 5756 5758 5760 5762 5763 5764 5761 5762 5762 5763 5765 5767 5768 5768
5707 5707 5704 5704 5701 5699 5697 5695 5692 5693 5690 5688 5687 5688 5695 5700 5707 5715 5722 5727 5732 5737 5739 5742 5744 5745 5748 5749 5749 5749 5752 5753 5754 5754 5755 5755 5755 5754 5755 5756 5759 5759 5760
5702 5703 5702 5701 5699 5695 5693 5691 5687 5685 5684 5685 5684 5684 5688 5696 5703 5709 5716 5721 5726 5729 5733 5736 5738 5739 5740 5741 5741 5742 5744 5746 5747 5750 5748 5747 5748 5748 5748 5748 5750 5749 5749